Погода в Липовом

Украина / Полтавская область     49°28′55″N   32°43′39″E
В апреле 2022 года жителям России запретили посещать сайт meteo.paraplan.net по решению Генеральной прокуратуры. Аудитория сайта уменьшилась в 10 раз. Владельцы сайта не видят смысла в поддержке погодного сервера в таких условиях. Сайт будет закрыт в октябре.
темп.,
°C
ветер,
м/с
пор.,
м/с
влажн.,
%
обл.,
%
осадки,
мм/ч
давл.,
гПа
погр.,
м
29 сентября, чт
чт2900:00+15юз237929 0.0 100572
03:00+12сз36955 0.0 1007130
06:00+10сз339115 0.0 100857
09:00+12св2276100 0.0 1010175
12:00+17юв3350100 0.0 1011580
15:00+18юв4546100 0.0 1011511
18:00+17юв355945 0.0 101097
21:00+16юв41073100 0.1 1011186
30 сентября, пт
пт3000:00+16ю41081100 0.4 1011264
03:00+15юв3391100 2.4 101268
06:00+15юв3888100 1.0 1011192
09:00+16ю498937 2.7 1012334
12:00+21ю467245 1.1 1013813
15:00+23ююз3462100 2.0 10131028
18:00+21з1172100 0.4 101411
21:00+18ссз2284100 0.4 101517
1 октября, сб
сб100:00+16с11876 0.0 101611
03:00+16зюз11885 0.0 101611
06:00+15юз22909 0.0 101724
09:00+17юз2477100 0.0 1017161
12:00+21ююз4656100 0.0 1016486
15:00+24юз5746100 0.0 10151178
18:00+21ююз3359100 0.0 101336
21:00+19юз356835 0.0 101267
2 октября, вс
вс200:00+15ссв3593100 0.1 1012115
03:00+15св2289100 0.2 101127
06:00+15с2393100 1.4 101086
09:00+16с238591 2.1 1010291
12:00+19ссз2372100 0.1 1009715
15:00+19сз5574100 0.2 1008743
18:00+15ссз5993100 1.0 1007495
21:00+13ссз71289100 1.5 1006715
3 октября, пн
пн300:00+13ссз61188100 1.1 1006778
03:00+11ссз71387100 4.4 1005673
06:00+10сз71389100 2.1 1004680
09:00+10сз81387100 2.8 1005662
12:00+10зсз121888100 12.2 9971341
15:00+11з111785100 16.1 10001492
18:00+12з9157693 0.5 10021023
21:00+11зюз915786 0.6 1004763